Harbor Springs, MI

12:07 AM EST on December 17, 2017 (GMT -0500)
Harbor Springs

Weather History for KMGN - April, 2014

Change the Weather History Date:

Friday, April 11, 2014

  Actual Average (KPLN) Record (KPLN)
Temperature  
Mean Temperature 42 °F -  
Max Temperature 55 °F 47 °F 77 °F (2006)
Min Temperature 29 °F 25 °F 7 °F (1973)
Degree Days  
Heating Degree Days 23    
Moisture  
Dew Point 27 °F    
Average Humidity 67    
Maximum Humidity 92    
Minimum Humidity 27    
Precipitation  
Precipitation 0.00 in - - ()
Sea Level Pressure  
Sea Level Pressure 29.95 in    
Wind  
Wind Speed 1 mph (WSW)    
Max Wind Speed 7 mph    
Max Gust Speed -    
Visibility 10 miles    
Events Rain    
Averages and records for this station are not official NWS values.
T = Trace of Precipitation, MM = Missing Value Source: NWS Daily Summary

Daily Weather History Graph

Daily Weather History Graph

Search for Another Location

Airport or City:

Trip Planner

Search our weather history database for the weather conditions in past years. The results will help you decide how hot, cold, wet, or windy it might be!

Date:

Astronomy

Apr. 11, 2014 Rise Set
Actual Time 7:01 AM EDT 8:20 PM EDT
Civil Twilight 6:30 AM EDT 8:51 PM EDT
Nautical Twilight 5:54 AM EDT 9:28 PM EDT
Astronomical Twilight 5:14 AM EDT 10:07 PM EDT
Moon 4:51 PM EDT (4/11) 5:06 AM EDT (4/11)
Length of Visible Light 14h 20m
Length of Day
13h 19m
Waxing Gibbous, 87% of the Moon is Illuminated
Apr 11
Waxing Gibbous
Apr 15
Full
Apr 22
Last Quarter
Apr 29
New
May 6
First Quarter

Hourly Weather History & Observations

Time (EDT) Temp. Windchill Dew Point Humidity Pressure Visibility Wind Dir Wind Speed Gust Speed Precip Events Conditions
12:15 AM 32.9 °F - 30.2 °F 90% 29.85 in 10.0 mi Calm Calm - N/A   Clear
12:35 AM 32.0 °F 28.7 °F 29.8 °F 92% 29.86 in 10.0 mi SW 3.5 mph - N/A   Clear
12:55 AM 31.6 °F - 29.5 °F 92% 29.86 in 10.0 mi Calm Calm - N/A   Clear
1:15 AM 31.6 °F - 28.4 °F 88% 29.86 in 10.0 mi Calm Calm - N/A   Clear
1:35 AM 31.1 °F - 28.4 °F 90% 29.86 in 10.0 mi Calm Calm - N/A   Clear
1:55 AM 31.6 °F - 28.4 °F 88% 29.86 in 10.0 mi Calm Calm - N/A   Clear
2:15 AM 30.9 °F - 28.2 °F 90% 29.87 in 10.0 mi Calm Calm - N/A   Clear
2:35 AM 30.4 °F - 28.0 °F 91% 29.87 in 10.0 mi Calm Calm - N/A   Clear
2:55 AM 30.7 °F - 28.2 °F 90% 29.88 in 10.0 mi Calm Calm - N/A   Clear
3:15 AM 30.2 °F - 27.7 °F 90% 29.89 in 10.0 mi Calm Calm - N/A   Clear
3:35 AM 30.0 °F - 28.0 °F 92% 29.89 in 10.0 mi Calm Calm - N/A   Clear
3:55 AM 29.8 °F - 27.5 °F 91% 29.90 in 10.0 mi Calm Calm - N/A   Clear
4:15 AM 29.5 °F - 27.3 °F 92% 29.90 in 10.0 mi Calm Calm - N/A   Clear
4:35 AM 29.3 °F - 27.1 °F 92% 29.91 in 10.0 mi Calm Calm - N/A   Clear
4:55 AM 30.4 °F - 27.1 °F 88% 29.91 in 10.0 mi Calm Calm - N/A   Clear
5:15 AM 30.2 °F - 27.1 °F 88% 29.91 in 10.0 mi Calm Calm - N/A   Clear
5:35 AM 29.8 °F - 27.0 °F 89% 29.90 in 10.0 mi Calm Calm - N/A   Clear
5:55 AM 30.0 °F - 27.0 °F 88% 29.91 in 10.0 mi Calm Calm - N/A   Clear
6:15 AM 30.4 °F - 26.6 °F 86% 29.91 in 10.0 mi Calm Calm - N/A   Clear
6:35 AM 31.3 °F - 26.4 °F 82% 29.92 in 10.0 mi Calm Calm - N/A   Clear
6:55 AM 30.9 °F - 26.4 °F 83% 29.92 in 10.0 mi Calm Calm - N/A   Clear
7:15 AM 29.7 °F - 26.2 °F 87% 29.94 in 10.0 mi Calm Calm - N/A   Clear
7:35 AM 30.2 °F - 26.4 °F 86% 29.94 in 10.0 mi Calm Calm - N/A   Clear
7:55 AM 31.1 °F - 26.8 °F 84% 29.96 in 10.0 mi Calm Calm - N/A   Clear
8:15 AM 32.0 °F - 27.7 °F 84% 29.96 in 10.0 mi Calm Calm - N/A   Clear
8:35 AM 34.0 °F - 28.2 °F 79% 29.98 in 10.0 mi Calm Calm - N/A   Clear
8:55 AM 38.7 °F - 27.5 °F 64% 29.99 in 10.0 mi Calm Calm - N/A   Clear
9:15 AM 41.2 °F - 28.2 °F 60% 29.99 in 10.0 mi Calm Calm - N/A   Clear
9:35 AM 42.8 °F - 25.7 °F 51% 29.99 in 10.0 mi Calm Calm - N/A   Clear
9:55 AM 44.1 °F 42.5 °F 25.5 °F 48% 29.99 in 10.0 mi South 3.5 mph - N/A   Clear
10:15 AM 45.7 °F - 25.7 °F 46% 29.99 in 10.0 mi Calm Calm - N/A   Clear
10:35 AM 45.9 °F - 24.6 °F 43% 29.99 in 10.0 mi Calm Calm - N/A   Clear
10:55 AM 47.8 °F - 24.3 °F 40% 29.99 in 10.0 mi SW 3.5 mph - N/A   Clear
11:15 AM 48.9 °F - 24.4 °F 38% 29.99 in 10.0 mi Calm Calm - N/A   Clear
11:35 AM 49.6 °F - 25.2 °F 38% 29.99 in 10.0 mi SSW 3.5 mph - N/A   Clear
11:55 AM 48.6 °F - 24.3 °F 39% 29.99 in 10.0 mi WSW 3.5 mph - N/A   Scattered Clouds
12:15 PM 51.4 °F - 25.3 °F 36% 29.99 in 10.0 mi WSW 4.6 mph - N/A   Mostly Cloudy
12:35 PM 51.8 °F - 25.2 °F 36% 29.98 in 10.0 mi WSW 4.6 mph - N/A   Scattered Clouds
12:54 PM 52.3 °F - 25.5 °F 35% 29.97 in 10.0 mi WSW 5.8 mph - N/A   Scattered Clouds
1:15 PM 53.1 °F - 24.1 °F 32% 29.97 in 10.0 mi WSW 4.6 mph - N/A   Mostly Cloudy
1:35 PM 54.5 °F - 23.5 °F 30% 29.96 in 10.0 mi WSW 3.5 mph - N/A   Scattered Clouds
1:54 PM 54.9 °F - 23.0 °F 29% 29.95 in 10.0 mi SW 4.6 mph - N/A   Clear
2:15 PM 54.7 °F - 22.3 °F 28% 29.94 in 10.0 mi WSW 4.6 mph - N/A   Clear
2:35 PM 55.6 °F - 22.8 °F 28% 29.94 in 10.0 mi WSW 4.6 mph - N/A   Scattered Clouds
2:54 PM 55.2 °F - 21.4 °F 27% 29.93 in 10.0 mi WSW 4.6 mph - N/A   Mostly Cloudy
3:15 PM 44.1 °F 42.5 °F 29.3 °F 56% 29.94 in 10.0 mi SW 3.5 mph - N/A   Overcast
3:35 PM 44.4 °F 42.9 °F 28.8 °F 54% 29.94 in 10.0 mi SSW 3.5 mph - N/A   Overcast
3:54 PM 40.8 °F 37.8 °F 29.3 °F 64% 29.94 in 10.0 mi SW 4.6 mph - N/A   Overcast
4:15 PM 41.0 °F 39.0 °F 28.8 °F 62% 29.95 in 10.0 mi WSW 3.5 mph - N/A   Overcast
4:34 PM 42.3 °F 38.6 °F 27.3 °F 56% 29.95 in 10.0 mi WSW 5.8 mph - N/A   Overcast
4:55 PM 47.3 °F - 23.2 °F 39% 29.96 in 10.0 mi WSW 4.6 mph - N/A   Overcast
5:15 PM 46.6 °F - 26.1 °F 45% 29.96 in 10.0 mi WSW 4.6 mph - N/A   Overcast
5:34 PM 42.8 °F 39.3 °F 27.0 °F 54% 29.96 in 10.0 mi SW 5.8 mph - N/A   Overcast
5:55 PM 40.5 °F 35.8 °F 27.7 °F 60% 29.97 in 10.0 mi SW 6.9 mph - N/A   Overcast
6:15 PM 39.2 °F 35.9 °F 28.2 °F 65% 29.98 in 10.0 mi West 4.6 mph - N/A   Overcast
6:34 PM 40.1 °F 36.1 °F 28.4 °F 63% 29.98 in 10.0 mi West 5.8 mph - N/A Rain Light Rain
6:55 PM 41.0 °F 37.1 °F 27.9 °F 60% 29.98 in 10.0 mi West 5.8 mph - N/A   Overcast
7:15 PM 41.0 °F 39.0 °F 28.0 °F 60% 29.98 in 10.0 mi WSW 3.5 mph - N/A   Overcast
7:34 PM 39.6 °F - 29.3 °F 67% 29.98 in 10.0 mi Calm Calm - N/A   Overcast
7:55 PM 38.5 °F - 29.3 °F 70% 29.97 in 10.0 mi Calm Calm - N/A   Overcast
8:15 PM 39.9 °F - 29.8 °F 67% 29.98 in 10.0 mi Calm Calm - N/A   Overcast
8:34 PM 40.5 °F - 30.0 °F 66% 29.98 in 10.0 mi Calm Calm - N/A   Overcast
8:55 PM 39.2 °F - 29.3 °F 68% 29.97 in 10.0 mi Calm Calm - N/A   Scattered Clouds
9:15 PM 38.5 °F - 29.3 °F 70% 29.98 in 10.0 mi Calm Calm - N/A   Clear
9:35 PM 39.0 °F - 29.7 °F 69% 29.99 in 10.0 mi Calm Calm - N/A   Clear
9:55 PM 38.5 °F - 29.8 °F 71% 29.99 in 10.0 mi Calm Calm - N/A   Clear
10:15 PM 38.5 °F - 29.5 °F 70% 29.99 in 10.0 mi Calm Calm - N/A   Clear
10:35 PM 35.6 °F - 29.7 °F 79% 29.99 in 10.0 mi Calm Calm - N/A   Clear
10:55 PM 35.6 °F - 29.3 °F 78% 30.00 in 10.0 mi Calm Calm - N/A   Clear
11:15 PM 34.5 °F - 29.3 °F 81% 30.01 in 10.0 mi Calm Calm - N/A   Clear
11:35 PM 34.2 °F - 29.3 °F 82% 30.00 in 10.0 mi Calm Calm - N/A   Clear
11:55 PM 33.3 °F - 29.5 °F 86% 30.01 in 10.0 mi Calm Calm - N/A   Clear